STARLINK-36967, 68013

Orbit data source: Space-Track

STARLINK-36967, 68013 is a payload satellite owned by SpaceX/Seattle (US) in LEO that was launched on Fri, 27 Feb 2026 UTC via an FALCON 9 launch vehicle from the Air Force Eastern Test Range (AFETR). Payload-class satellites include a variety of spacecraft equipped with specific instruments for various scientific and technological missions. These include communications satellites like Starlink; space stations such as the ISS; scientific satellites like the Hubble; Earth observation satellites from companies like Planet Labs, Umbra, and HawkEye 360; GPS; miniature CubeSats for education and research; and military/defense satellites.

Loading next visibility...
Identifier
68013, 2026-039AD
Orbit
LEO
Country
Flag of USUS
Related business
Manufacturer
SpaceX/Seattle
Mission
Operational Commercial Communications
Bus & Motor
STARLINK V2MO, Unknown motor
Mass
575 kg wet, ~530 kg dry
Launch date (UTC)
2026-02-27 (4 months ago)
Launch vehicle
FALCON 9
Launch site
Air Force Eastern Test Range (AFETR)
Object type
Payload
Rocket body
Debris
Shape & HBR
Box + 2 Pan, 17.7 m
Radar Cross Section
36.964 m², Large (>1 m²)

Expand to show TLE details & history
Last TLE update: 18 hours ago

TLE from 18 hours ago
0 STARLINK-36967
1 68013U 26039AD  26171.07942499  .00016198  00000-0  59653-3 0  9995
2 68013  42.9986 190.6054 0001124 272.4664  87.6059 15.27596875 17369
Epoch: 2026-06-20T01:54Z
TLE epoch observation values (Epoch: 2026-06-20T01:54:22.319Z)
Latitude
Longitude
-106.28679°
Altitude
482.742 km
Speed
7.626 km/s
True Right ascension
12h 42m 25s
True Declination
0° 00' 00"
Sunlit
Object was in daylight at epoch
Visualization orbit readout
Latitude
Unknown
Longitude
Unknown
Altitude
Unknown
Speed
Unknown
Apparent Right ascension
Unknown
Apparent Declination
Unknown
Sunlit
N/A
Visualization observer readout
Local Sidereal Time
07:19:30
Azimuth
Unknown
Elevation
Unknown
Doppler factor
Unknown
Orbital elements
Apogee altitude
485.715 km
Perigee altitude
484.173 km
Semi-major axis
6,863.081 km
Eccentricity
0.00011
Inclination
42.9986°
RAAN
190.6054°
Arg. of periapsis
272.4664°
True anomaly
87.61877°
Mean anomaly
87.6059°
Eccentric anomaly
87.61233°
Mean motion
3.81737 °/min
Orbital period
94.31 mins
BSTAR
0.00059653
Loading maneuver chart data...
Computing Atmospheric mass density...
Loading historical data...
Loading historical data...
Loading historical data...
Loading historical data...
Loading historical data...
Loading historical data...
Loading historical data...

Documentation

Showing up to 5 results
|